Weather History for St. Francis, KS

Change the Weather History Date:

Monday, September 16, 2013

  Actual Average Record
Temperature  
Mean Temperature 56 °F -  
Max Temperature 59 °F 77 °F 88 °F (2014)
Min Temperature 54 °F 50 °F 51 °F (2014)
Degree Days  
Heating Degree Days 9    
Growing Degree Days 6 (Base 50)    
Moisture  
Dew Point 52 °F    
Average Humidity 85    
Maximum Humidity 91    
Minimum Humidity 77    
Precipitation  
Precipitation 0.00 in - - ()
Sea Level Pressure  
Sea Level Pressure 30.23 in    
Wind  
Wind Speed 8 mph (ESE)    
Max Wind Speed 17 mph    
Max Gust Speed 21 mph    
Visibility 10 miles    
Events      
Averages and records for this station are not official NWS values.
T = Trace of Precipitation, MM = Missing Value Source: NWS Daily Summary

Daily Weather History Graph

Daily Weather History Graph

Search for Another Location

Airport:

Trip Planner

Search our weather history database for the weather conditions in past years. The results will help you decide how hot, cold, wet, or windy it might be!

Date:

Astronomy

Sep. 16, 2013 Rise Set
Actual Time 7:29 AM CDT 7:53 PM CDT
Civil Twilight 7:02 AM CDT 8:20 PM CDT
Nautical Twilight 6:30 AM CDT 8:52 PM CDT
Astronomical Twilight 5:57 AM CDT 9:24 PM CDT
Moon 6:03 PM CDT (9/16) 4:18 AM CDT (9/16)
Length of Visible Light 13h 18m
Length of Day
12h 24m
Waxing Gibbous, 90% of the Moon is Illuminated
Sep 16
Waxing Gibbous
Sep 19
Full
Sep 26
Last Quarter
Oct 4
New
Oct 11
First Quarter

Hourly Weather History & Observations

Time (CDT) Temp. Dew Point Humidity Pressure Visibility Wind Dir Wind Speed Gust Speed Precip Events Conditions
12:15 AM 57.2 °F 53.4 °F 87% 30.28 in 10.0 mi North 5.8 mph - N/A   Overcast
12:35 AM 57.0 °F 53.4 °F 88% 30.28 in 10.0 mi North 4.6 mph - N/A   Overcast
12:55 AM 56.8 °F 53.2 °F 88% 30.28 in 10.0 mi North 3.5 mph - N/A   Overcast
1:15 AM 56.7 °F 53.2 °F 88% 30.27 in 10.0 mi North 4.6 mph - N/A   Overcast
1:35 AM 56.7 °F 53.6 °F 89% 30.27 in 10.0 mi North 3.5 mph - N/A   Overcast
1:55 AM 56.8 °F 53.6 °F 89% 30.27 in 10.0 mi North 4.6 mph - N/A   Overcast
2:15 AM 57.2 °F 53.8 °F 88% 30.27 in 10.0 mi NNE 4.6 mph - N/A   Overcast
2:35 AM 57.2 °F 53.8 °F 88% 30.26 in 10.0 mi NE 6.9 mph - N/A   Overcast
2:55 AM 57.6 °F 53.6 °F 87% 30.26 in 10.0 mi East 5.8 mph - N/A   Overcast
3:15 AM 57.6 °F 52.7 °F 84% 30.26 in 10.0 mi East 8.1 mph - N/A   Overcast
3:35 AM 57.4 °F 52.3 °F 83% 30.26 in 10.0 mi East 8.1 mph - N/A   Overcast
3:55 AM 57.2 °F 52.2 °F 83% 30.26 in 10.0 mi East 13.8 mph - N/A   Overcast
4:15 AM 56.8 °F 52.0 °F 84% 30.26 in 10.0 mi East 13.8 mph - N/A   Overcast
4:35 AM 56.3 °F 51.8 °F 85% 30.26 in 10.0 mi East 17.3 mph - N/A   Overcast
4:55 AM 55.4 °F 50.9 °F 85% 30.26 in 10.0 mi East 11.5 mph - N/A   Overcast
5:15 AM 55.0 °F 50.9 °F 86% 30.27 in 10.0 mi East 11.5 mph - N/A   Overcast
5:35 AM 55.0 °F 50.5 °F 85% 30.28 in 10.0 mi East 11.5 mph - N/A   Overcast
5:55 AM 54.7 °F 50.5 °F 86% 30.28 in 10.0 mi East 13.8 mph - N/A   Overcast
6:15 AM 54.5 °F 50.0 °F 85% 30.28 in 10.0 mi East 12.7 mph - N/A   Overcast
6:35 AM 54.5 °F 50.0 °F 85% 30.28 in 10.0 mi ESE 13.8 mph - N/A   Overcast
6:55 AM 54.3 °F 50.2 °F 86% 30.28 in 10.0 mi East 10.4 mph - N/A   Overcast
7:15 AM 54.5 °F 50.4 °F 86% 30.28 in 10.0 mi East 6.9 mph - N/A   Overcast
7:35 AM 54.5 °F 50.4 °F 86% 30.29 in 10.0 mi East 5.8 mph - N/A   Overcast
7:55 AM 54.5 °F 50.9 °F 88% 30.28 in 10.0 mi East 8.1 mph - N/A   Overcast
8:15 AM 54.5 °F 50.9 °F 88% 30.29 in 10.0 mi ESE 6.9 mph - N/A   Overcast
8:35 AM 54.5 °F 51.1 °F 88% 30.29 in 10.0 mi ESE 8.1 mph - N/A   Overcast
8:55 AM 54.7 °F 50.9 °F 87% 30.28 in 10.0 mi ESE 9.2 mph - N/A   Overcast
9:15 AM 55.0 °F 51.1 °F 86% 30.28 in 10.0 mi East 6.9 mph - N/A   Overcast
9:35 AM 55.6 °F 51.3 °F 85% 30.28 in 10.0 mi ESE 6.9 mph - N/A   Overcast
9:55 AM 55.8 °F 51.1 °F 84% 30.28 in 10.0 mi East 5.8 mph - N/A   Overcast
10:15 AM 56.1 °F 51.1 °F 83% 30.28 in 10.0 mi ESE 6.9 mph - N/A   Overcast
10:35 AM 56.1 °F 50.9 °F 83% 30.28 in 10.0 mi ESE 8.1 mph - N/A   Overcast
10:55 AM 55.6 °F 51.1 °F 85% 30.28 in 10.0 mi ESE 5.8 mph - N/A   Overcast
11:15 AM 56.3 °F 51.3 °F 83% 30.28 in 10.0 mi ESE 6.9 mph - N/A   Overcast
11:35 AM 56.7 °F 51.4 °F 83% 30.28 in 10.0 mi East 6.9 mph - N/A   Overcast
11:55 AM 57.9 °F 51.6 °F 80% 30.27 in 10.0 mi East 5.8 mph - N/A   Overcast
12:15 PM 58.1 °F 51.6 °F 79% 30.27 in 10.0 mi SE 6.9 mph - N/A   Overcast
12:35 PM 58.6 °F 51.6 °F 77% 30.26 in 10.0 mi SE 6.9 mph - N/A   Overcast
12:55 PM 58.1 °F 51.4 °F 78% 30.26 in 10.0 mi SSE 8.1 mph - N/A   Overcast
1:15 PM 58.3 °F 52.0 °F 80% 30.26 in 10.0 mi ESE 8.1 mph - N/A   Overcast
1:35 PM 57.7 °F 52.0 °F 81% 30.25 in 10.0 mi SE 6.9 mph - N/A   Overcast
1:55 PM 58.1 °F 52.2 °F 81% 30.25 in 10.0 mi SE 8.1 mph - N/A   Overcast
2:15 PM 58.6 °F 52.2 °F 79% 30.24 in 10.0 mi SE 8.1 mph - N/A   Overcast
2:35 PM 58.1 °F 52.3 °F 81% 30.23 in 10.0 mi SE 8.1 mph - N/A   Overcast
2:55 PM 58.1 °F 52.7 °F 82% 30.23 in 10.0 mi SE 8.1 mph - N/A   Overcast
3:15 PM 58.3 °F 52.7 °F 82% 30.21 in 10.0 mi ESE 8.1 mph - N/A   Overcast
3:35 PM 58.3 °F 52.7 °F 82% 30.21 in 10.0 mi SE 10.4 mph - N/A   Overcast
3:55 PM 58.6 °F 52.9 °F 81% 30.20 in 10.0 mi SE 10.4 mph - N/A   Overcast
4:15 PM 58.1 °F 52.9 °F 83% 30.20 in 10.0 mi SSE 9.2 mph - N/A   Overcast
4:35 PM 57.9 °F 53.1 °F 84% 30.19 in 10.0 mi SSE 11.5 mph - N/A   Overcast
4:55 PM 57.9 °F 53.4 °F 85% 30.19 in 10.0 mi SSE 10.4 mph - N/A   Overcast
5:15 PM 58.1 °F 53.2 °F 84% 30.18 in 10.0 mi SSE 9.2 mph - N/A   Overcast
5:35 PM 58.5 °F 53.4 °F 83% 30.17 in 10.0 mi SE 10.4 mph - N/A   Overcast
5:55 PM 58.5 °F 53.4 °F 83% 30.17 in 10.0 mi SE 10.4 mph - N/A   Overcast
6:15 PM 58.5 °F 53.2 °F 83% 30.17 in 10.0 mi SE 9.2 mph - N/A   Overcast
6:35 PM 58.5 °F 53.2 °F 83% 30.15 in 10.0 mi SE 8.1 mph - N/A   Overcast
6:55 PM 58.5 °F 53.2 °F 83% 30.15 in 10.0 mi SSE 6.9 mph - N/A   Overcast
7:15 PM 58.5 °F 53.4 °F 83% 30.15 in 10.0 mi SE 9.2 mph - N/A   Overcast
7:35 PM 58.1 °F 53.6 °F 85% 30.15 in 10.0 mi ESE 9.2 mph - N/A   Overcast
7:55 PM 58.1 °F 53.6 °F 85% 30.15 in 10.0 mi SSE 10.4 mph - N/A   Overcast
8:15 PM 57.7 °F 53.8 °F 87% 30.14 in 10.0 mi SE 10.4 mph - N/A   Overcast
8:35 PM 57.7 °F 53.6 °F 86% 30.14 in 10.0 mi SE 12.7 mph - N/A   Overcast
8:55 PM 57.2 °F 53.6 °F 88% 30.13 in 10.0 mi SE 13.8 mph - N/A   Mostly Cloudy
9:15 PM 56.8 °F 53.6 °F 89% 30.14 in 10.0 mi SE 15.0 mph 20.7 mph N/A   Mostly Cloudy
9:35 PM 57.2 °F 53.6 °F 88% 30.14 in 10.0 mi SE 15.0 mph - N/A   Overcast
9:55 PM 57.2 °F 53.8 °F 88% 30.14 in 10.0 mi SE 15.0 mph - N/A   Overcast
10:15 PM 57.4 °F 53.8 °F 88% 30.15 in 10.0 mi SSE 11.5 mph 17.3 mph N/A   Overcast
10:35 PM 57.6 °F 54.1 °F 88% 30.15 in 10.0 mi SSE 11.5 mph - N/A   Overcast
10:55 PM 57.6 °F 54.3 °F 89% 30.15 in 10.0 mi SSE 12.7 mph 17.3 mph N/A   Overcast
11:15 PM 57.4 °F 54.5 °F 90% 30.15 in 10.0 mi SSE 13.8 mph 18.4 mph N/A   Overcast
11:35 PM 57.4 °F 54.5 °F 90% 30.14 in 7.0 mi SSE 16.1 mph - N/A   Overcast
11:55 PM 57.2 °F 54.7 °F 91% 30.14 in 4.0 mi SSE 13.8 mph 18.4 mph N/A   Overcast